Location: Beekmeers
(50.8953°N, 3.6968°E)
Time: 03:11:03
(UTC+00:00)

Cosmos 1455 - Pass Details

Date: 23 May 2024
Orbit: 445 x 460 km, 82.5° (Epoch: 17 June)

Event Time Altitude Azimuth Distance (km) Brightness Sun altitude
Rises 00:25:40 0° 358° (N) 2,461 7.2 -17.8°
Reaches altitude 10° 00:27:58 10° 11° (NNE) 1,586 6.0 -17.8°
Maximum altitude 00:30:57 27° 71° (ENE) 905 3.7 -17.7°
Enters shadow 00:33:01 16° 121° (ESE) 1,274 4.0 -17.6°
